Location: Hamayl? Da??
(36.7028°N, 30.1716°E)
Time: 13:16:04
(UTC+00:00)

ASTRO E2 - Pass Details

Date: 04 August 2024
Orbit: 395 x 402 km, 31.4° (Epoch: 11 September)

Event Time Altitude Azimuth Distance (km) Brightness Sun altitude
Rises 18:16:34 0° 255° (WSW) 2,305 6.6 -14.0°
Reaches altitude 10° 18:18:49 10° 245° (WSW) 1,441 5.4 -14.3°
Maximum altitude 18:21:46 31° 181° (S) 714 3.1 -14.8°
Enters shadow 18:22:20 29° 159° (SSE) 752 3.1 -14.9°
